| time (UTC) | temp F | wind direction | speed MPH | gust MPH | rain 1hr in | rain 24hr in | rain mn in | humidity % | barometer mb |
| 20260507012058 | 41 | 270 | 14.0 | 31.0 | 0.00 | 0.00 | 0.00 | 93 | |
| 20260507001958 | 41 | 250 | 18.0 | 29.0 | 0.00 | 0.00 | 0.00 | 99 | |
| 20260506231958 | 41 | 240 | 18.0 | 36.0 | 0.00 | 0.00 | 0.00 | 99 | |
| 20260506222214 | 43 | 280 | 29.0 | 0.0 | 0.00 | 0.00 | 0.00 | 86 | |
| 20260506211958 | 41 | 330 | 16.0 | 0.0 | 0.00 | 0.00 | 0.00 | 99 | |
| 20260506202033 | 43 | 320 | 14.0 | 0.0 | 0.00 | 0.00 | 0.00 | 86 | |
| 20260506192149 | 45 | 280 | 14.0 | 0.0 | 0.00 | 0.00 | 0.00 | 75 | |
| 20260506182047 | 45 | 300 | 24.0 | 0.0 | 0.00 | 0.00 | 0.00 | 81 | |
| 20260506172013 | 46 | 260 | 2.0 | 0.0 | 0.00 | 0.00 | 0.00 | 75 | |
| 20260506162231 | 46 | 240 | 7.0 | 0.0 | 0.00 | 0.00 | 0.00 | 81 | |
| 20260506152046 | 48 | 270 | 7.0 | 0.0 | 0.00 | 0.00 | 0.00 | 81 | |
| 20260506142026 | 46 | 310 | 7.0 | 20.0 | 0.00 | 0.00 | 0.00 | 93 | |
| 20260506132026 | 45 | 260 | 12.0 | 26.0 | 0.00 | 0.00 | 0.00 | 93 | |
| 20260506122026 | 43 | 270 | 9.0 | 24.0 | 0.00 | 0.00 | 0.00 | 99 | |
| 20260506111959 | 41 | 270 | 12.0 | 26.0 | 0.00 | 0.00 | 0.00 | 99 | |
| 20260506102200 | 41 | 250 | 20.0 | 33.0 | 0.00 | 0.00 | 0.00 | 99 | |
| 20260506081958 | 41 | 260 | 16.0 | 36.0 | 0.00 | 0.00 | 0.00 | 99 | |
| 20260506071959 | 39 | 240 | 22.0 | 43.0 | 0.00 | 0.00 | 0.00 | 99 | |
| 20260506062000 | 39 | 250 | 20.0 | 45.0 | 0.00 | 0.00 | 0.00 | 99 | |
| 20260506042158 | 41 | 250 | 22.0 | 52.0 | 0.00 | 0.00 | 0.00 | 99 | |
| 20260506032001 | 41 | 240 | 20.0 | 38.0 | 0.00 | 0.00 | 0.00 | 99 | |
| 20260506021959 | 43 | 250 | 26.0 | 0.0 | 0.00 | 0.00 | 0.00 | 81 |